Regional Weather Roundup
Issued by NWS State College, PA

Home | Current Version | Previous Version | Graphics & Text | Print | Product List | Glossary On
Versions: 1 2 3 4 5 6 7 8 9 10 11 12 13 14 15 16 17 18 19 20 21 22 23 24 25 26 27 28 29 30 31 32 33 34 35 36 37 38 39 40 41 42 43 44 45 46 47 48 49 50
000
ASUS41 KCTP 230710
RWRCTP

REGIONAL WEATHER ROUNDUP
NATIONAL WEATHER SERVICE STATE COLLEGE PA
300 AM EDT SAT SEP 23 2017

Note: "fair" indicates few or no clouds below 12,000 feet with no
significant weather and/or obstructions to visibility.

* = STATION THAT DOES NOT REPORT PRECIPITATION /E.G. RAIN...SNOW...ETC/
    THUNDER OR FOG.

PAZ002>004-007>009-013>016-020>023-029>032-230800-
WESTERN PENNSYLVANIA

CITY           SKY/WX    TMP DP  RH WIND       PRES   REMARKS
ERIE           CLEAR     60  56  86 CALM      30.09S
MEADVILLE      CLEAR     60  57  89 CALM      30.11F
FRANKLIN*      CLEAR     58  56  93 NE3       30.12F
NEW CASTLE     FAIR      57  57 100 CALM      30.10F
BEAVER COUNTY  NOT AVBL
BUTLER*        CLEAR     57  56  96 CALM      30.11F
PITTSBURGH INT PTCLDY    62  56  80 NW3       30.10S
PITTSBURGH     CLEAR     65  55  70 N3        30.09S
INDIANA*       CLEAR     57  55  94 CALM      30.14S
LATROBE        CLEAR     55  55 100 MISG      30.11S FOG
WASHINGTON CO*   N/A     54  54 100 CALM      30.10F VSB 1/2
$$

PAZ004>006-010>012-017>019-024>028-033>037-041-042-045-046-049>053-230800-
CENTRAL PENNSYLVANIA

CITY           SKY/WX    TMP DP  RH WIND       PRES   REMARKS
BRADFORD       CLEAR     52  51  97 CALM      30.14F
DUBOIS         CLEAR     59  50  72 N3        30.12F
CLEARFIELD     CLEAR     56  53  90 CALM      30.13F
JOHNSTOWN      CLEAR     64  51  62 CALM      30.14S
ALTOONA        CLEAR     59  54  83 CALM      30.12S
STATE COLLEGE  PTCLDY    56  55  94 CALM      30.12R
WILLIAMSPORT   CLEAR     58  54  86 CALM      30.08S
SELINSGROVE    CLEAR     52  52 100 CALM      30.08F
FT INDIANTOWN  CLEAR     69  52  54 NE6       30.04F
CAPITAL CITY   CLEAR     60  55  83 SW5       30.05F
HARRISBURG     MOCLDY    65  61  87 NW7       30.04S
YORK           PTCLDY    53  53 100 CALM      30.05S
$$

PAZ038>040-043-044-047-048-054-055-060>062-067>071-230800-
EASTERN PENNSYLVANIA

CITY           SKY/WX    TMP DP  RH WIND       PRES   REMARKS
SCRANTON       CLEAR     57  51  80 E5        30.07F
MOUNT POCONO   CLEAR     58  52  80 NW6       30.09F
ALLENTOWN      CLEAR     60  53  77 SW3       30.03S
QUAKERTOWN*    SUNNY     64  52  63 CALM      30.04S
READING        PTCLDY    61  59  93 CALM      30.03S
LANCASTER      CLEAR     62  57  83 W5        30.04S
COATESVILLE    SUNNY     66  52  59 N6        30.05S
POTTSTOWN      PTCLDY    61  55  81 CALM      30.04F
BLUE BELL      MOCLDY    61  55  82 CALM      30.03S
DOYLESTOWN     CLEAR     65  51  60 N3        30.01S
WILLOW GROVE   NOT AVBL
NORTH PHILA    CLEAR     69  55  60 NW6       30.02S
PHILADELPHIA   PTCLDY    70  53  54 N7        30.00F
$$




USA.gov is the U.S. government's official web portal to all federal, state and local government web resources and services.